Tracking 27380 objects as of 6-Jun-2023
HD Live streaming from Space Station
objects crossing your sky now

STARLINK-1762

Track STARLINK-1762 now!
10-day predictions
STARLINK-1762 is classified as:


NORAD ID: 46342
Int'l Code: 2020-062T
Perigee: 553.5 km
Apogee: 555.1 km
Inclination: 53.1 °
Period: 95.6 minutes
Semi major axis: 6925 km
RCS: Unknown
Launch date: September 3, 2020
Source: United States (US)
Launch site: AIR FORCE EASTERN TEST RANGE (AFETR)
Your satellite tracking list
Your tracking list is empty




NASA's NSSDC Master Catalog

Two Line Element Set (TLE):
1 46342U 20062T   23157.43450711  .00003770  00000-0  27187-3 0  9997
2 46342  53.0522 218.3646 0001157  85.7474 274.3647 15.06400717152492
Source of the keplerian elements: AFSPC